Weather History for Greenville Downtown, SC

Change the Weather History Date:

Tuesday, January 28, 2014

  Actual Average Record
Temperature  
Mean Temperature 27 °F -  
Max Temperature 33 °F 50 °F 77 °F (1999)
Min Temperature 21 °F 33 °F 19 °F (2004)
Degree Days  
Heating Degree Days 38    
Moisture  
Dew Point 11 °F    
Average Humidity 56    
Maximum Humidity 86    
Minimum Humidity 24    
Precipitation  
Precipitation 0.02 in - - ()
Sea Level Pressure  
Sea Level Pressure 30.17 in    
Wind  
Wind Speed 9 mph (NE)    
Max Wind Speed 12 mph    
Max Gust Speed 20 mph    
Visibility 7 miles    
Events Snow    
Averages and records for this station are not official NWS values.
T = Trace of Precipitation, MM = Missing Value Source: NWS Daily Summary

Daily Weather History Graph

Daily Weather History Graph

Search for Another Location

Airport:

Trip Planner

Search our weather history database for the weather conditions in past years. The results will help you decide how hot, cold, wet, or windy it might be!

Date:

Astronomy

Jan. 28, 2014 Rise Set
Actual Time 7:30 AM EST 5:54 PM EST
Civil Twilight 7:03 AM EST 6:21 PM EST
Nautical Twilight 6:33 AM EST 6:51 PM EST
Astronomical Twilight 6:03 AM EST 7:21 PM EST
Moon 5:09 AM EST (1/28) 3:44 PM EST (1/28)
Length of Visible Light 11h 17m
Length of Day
10h 23m
Waning Crescent, 7% of the Moon is Illuminated
Jan 28
Waning Crescent
Jan 30
New
Feb 6
First Quarter
Feb 14
Full
Feb 22
Last Quarter

Hourly Weather History & Observations

Time (EST) Temp. Windchill Dew Point Humidity Pressure Visibility Wind Dir Wind Speed Gust Speed Precip Events Conditions
12:53 AM 33.1 °F 24.4 °F 6.1 °F 32% 30.04 in 10.0 mi North 11.5 mph - N/A   Clear
1:53 AM 32.0 °F 24.2 °F 5.0 °F 32% 30.06 in 10.0 mi North 9.2 mph - N/A   Clear
2:53 AM 32.0 °F 26.4 °F 7.0 °F 35% 30.09 in 10.0 mi NE 5.8 mph - N/A   Clear
3:53 AM 32.0 °F 26.4 °F 5.0 °F 32% 30.10 in 10.0 mi ENE 5.8 mph - N/A   Clear
4:53 AM 30.9 °F 23.5 °F 3.0 °F 31% 30.12 in 10.0 mi NE 8.1 mph - N/A   Clear
5:53 AM 30.0 °F 21.1 °F 1.9 °F 30% 30.13 in 10.0 mi NE 10.4 mph - N/A   Clear
6:53 AM 30.0 °F 21.1 °F 1.9 °F 30% 30.17 in 10.0 mi NNE 10.4 mph - N/A   Clear
7:53 AM 30.0 °F 21.1 °F 3.0 °F 32% 30.19 in 10.0 mi NE 10.4 mph - N/A   Scattered Clouds
8:53 AM 30.9 °F 21.7 °F -0.0 °F 27% 30.21 in 10.0 mi East 11.5 mph 19.6 mph N/A   Overcast
9:53 AM 30.0 °F 21.7 °F -2.0 °F 25% 30.23 in 10.0 mi ENE 9.2 mph - N/A   Overcast
10:53 AM 32.0 °F 24.8 °F -0.9 °F 24% 30.26 in 10.0 mi ENE 8.1 mph - N/A   Mostly Cloudy
11:53 AM 33.1 °F 25.5 °F -0.0 °F 24% 30.25 in 10.0 mi ENE 9.2 mph - N/A   Overcast
12:53 PM 32.0 °F 24.2 °F 1.0 °F 27% 30.21 in 10.0 mi NE 9.2 mph 19.6 mph N/A   Overcast
1:53 PM 28.9 °F 21.9 °F 9.0 °F 43% 30.20 in 10.0 mi North 6.9 mph - 0.00 in Snow Light Snow
2:53 PM 26.1 °F 16.2 °F 16.0 °F 66% 30.20 in 3.0 mi North 10.4 mph - 0.00 in Snow Light Snow
3:01 PM 24.8 °F 16.1 °F 17.6 °F 74% 30.17 in 2.0 mi NNE 8.1 mph - 0.00 in Snow Light Snow
3:08 PM 24.8 °F 15.3 °F 19.4 °F 80% 30.17 in 1.8 mi NNE 9.2 mph - 0.00 in Snow Light Snow
3:53 PM 24.1 °F 15.2 °F 19.0 °F 81% 30.20 in 1.2 mi NE 8.1 mph - 0.00 in Snow Light Snow
4:24 PM 24.8 °F 14.6 °F 19.4 °F 80% 30.16 in 0.8 mi NNE 10.4 mph - 0.01 in Snow Light Snow
4:53 PM 24.1 °F 13.7 °F 19.0 °F 81% 30.19 in 1.0 mi NE 10.4 mph - 0.01 in Snow Light Snow
5:36 PM 24.8 °F 16.1 °F 19.4 °F 80% 30.15 in 1.8 mi NE 8.1 mph - 0.01 in Snow Light Snow
5:46 PM 24.8 °F 14.6 °F 19.4 °F 80% 30.15 in 2.5 mi NE 10.4 mph - 0.01 in Snow Light Snow
5:53 PM 24.1 °F 14.4 °F 19.0 °F 81% 30.19 in 3.0 mi NE 9.2 mph - 0.01 in Snow Light Snow
6:40 PM 23.0 °F 13.1 °F 19.4 °F 86% 30.14 in 2.5 mi ENE 9.2 mph - 0.00 in Snow Light Snow
6:53 PM 23.0 °F 13.9 °F 18.0 °F 81% 30.19 in 4.0 mi NE 8.1 mph - 0.00 in Snow Light Snow
7:53 PM 23.0 °F 14.7 °F 18.0 °F 81% 30.21 in 10.0 mi NE 6.9 mph - 0.00 in   Overcast
8:53 PM 23.0 °F 13.9 °F 17.1 °F 78% 30.22 in 10.0 mi ENE 8.1 mph - N/A   Overcast
9:53 PM 21.9 °F 14.5 °F 16.0 °F 78% 30.22 in 9.0 mi NNE 5.8 mph - 0.00 in   Overcast
10:53 PM 21.9 °F 12.5 °F 16.0 °F 78% 30.20 in 10.0 mi ENE 8.1 mph - N/A   Overcast
11:53 PM 23.0 °F 17.0 °F 15.1 °F 72% 30.21 in 10.0 mi ENE 4.6 mph - N/A   Overcast